Time,TemperatureF,DewpointF,PressureIn,WindDirection,WindDirectionDegrees,WindSpeedMPH,WindSpeedGustMPH,Humidity,HourlyPrecipIn,Conditions,Clouds,dailyrainin,SoftwareType,DateUTC
2013-09-18 00:02:00,63.1,0.0,29.81,WNW,292,0.0,0.0,0,0.00,,,0.00,WUHU21623XXSP,2013-09-18 07:02:00,
2013-09-18 00:07:00,63.0,0.0,29.81,NW,315,0.0,0.0,0,0.00,,,0.00,WUHU21623XXSP,2013-09-18 07:07:00,
2013-09-18 00:12:00,63.0,0.0,29.82,NW,315,0.0,0.0,0,0.00,,,0.00,WUHU21623XXSP,2013-09-18 07:12:00,
2013-09-18 00:17:00,62.8,0.0,29.81,NW,315,0.0,1.8,0,0.00,,,0.00,WUHU21623XXSP,2013-09-18 07:17:00,
2013-09-18 00:22:00,62.6,0.0,29.82,NNW,337,0.0,1.8,0,0.00,,,0.00,WUHU21623XXSP,2013-09-18 07:22:00,
2013-09-18 00:27:00,62.4,0.0,29.81,WNW,292,0.0,0.0,0,0.00,,,0.00,WUHU21623XXSP,2013-09-18 07:27:00,
2013-09-18 00:32:00,62.4,0.0,29.82,SSW,202,0.0,1.6,0,0.00,,,0.00,WUHU21623XXSP,2013-09-18 07:32:00,
2013-09-18 00:37:00,62.4,0.0,29.82,WSW,247,0.0,1.6,0,0.00,,,0.00,WUHU21623XXSP,2013-09-18 07:37:00,
2013-09-18 00:42:00,62.4,0.0,29.82,WNW,292,0.7,0.7,0,0.00,,,0.00,WUHU21623XXSP,2013-09-18 07:42:00,
2013-09-18 00:47:00,62.2,0.0,29.82,NNE,22,0.0,0.7,0,0.00,,,0.00,WUHU21623XXSP,2013-09-18 07:47:00,
2013-09-18 00:52:00,62.2,0.0,29.82,SSW,202,0.0,0.0,0,0.00,,,0.00,WUHU21623XXSP,2013-09-18 07:52:00,
2013-09-18 00:57:00,62.2,0.0,29.81,SE,135,0.0,0.0,0,0.00,,,0.00,WUHU21623XXSP,2013-09-18 07:57:00,
2013-09-18 01:02:00,62.2,0.0,29.82,SE,135,0.0,0.0,0,0.00,,,0.00,WUHU21623XXSP,2013-09-18 08:02:00,
2013-09-18 01:15:00,61.9,0.0,29.81,East,90,0.0,0.0,0,0.00,,,0.00,WUHU21623XXSP,2013-09-18 08:15:00,
2013-09-18 01:20:00,61.7,0.0,29.82,SSE,157,0.0,0.0,0,0.00,,,0.00,WUHU21623XXSP,2013-09-18 08:20:00,
2013-09-18 01:25:00,61.7,0.0,29.82,WNW,292,0.0,0.0,0,0.00,,,0.00,WUHU21623XXSP,2013-09-18 08:25:00,
2013-09-18 01:30:00,61.7,0.0,29.81,SE,135,0.0,0.0,0,0.00,,,0.00,WUHU21623XXSP,2013-09-18 08:30:00,
2013-09-18 01:35:00,61.7,0.0,29.82,SE,135,0.0,0.0,0,0.00,,,0.00,WUHU21623XXSP,2013-09-18 08:35:00,
2013-09-18 01:40:00,61.7,0.0,29.81,East,90,0.0,0.0,0,0.00,,,0.00,WUHU21623XXSP,2013-09-18 08:40:00,
2013-09-18 01:45:00,61.5,0.0,29.81,North,0,0.0,0.7,0,0.00,,,0.00,WUHU21623XXSP,2013-09-18 08:45:00,
2013-09-18 01:50:00,61.5,0.0,29.82,WNW,292,0.0,1.3,0,0.00,,,0.00,WUHU21623XXSP,2013-09-18 08:50:00,
2013-09-18 02:03:00,61.5,0.0,29.81,NW,315,0.0,1.3,0,0.00,,,0.00,WUHU21623XXSP,2013-09-18 09:03:00,
2013-09-18 02:08:00,61.5,0.0,29.82,NW,315,0.0,0.0,0,0.00,,,0.00,WUHU21623XXSP,2013-09-18 09:08:00,
2013-09-18 02:13:00,61.5,0.0,29.81,West,270,4.3,4.3,0,0.00,,,0.00,WUHU21623XXSP,2013-09-18 09:13:00,
2013-09-18 02:19:00,61.5,0.0,29.81,NW,315,1.1,4.3,0,0.00,,,0.00,WUHU21623XXSP,2013-09-18 09:19:00,
2013-09-18 02:24:00,61.3,0.0,29.81,WNW,292,0.0,4.3,0,0.00,,,0.00,WUHU21623XXSP,2013-09-18 09:24:00,
2013-09-18 02:29:00,61.3,0.0,29.81,WSW,247,2.2,2.2,0,0.00,,,0.00,WUHU21623XXSP,2013-09-18 09:29:00,
2013-09-18 02:34:00,61.3,0.0,29.81,NNW,337,0.0,2.2,0,0.00,,,0.00,WUHU21623XXSP,2013-09-18 09:34:00,
2013-09-18 02:39:00,61.3,0.0,29.82,WNW,292,1.8,1.8,0,0.00,,,0.00,WUHU21623XXSP,2013-09-18 09:39:00,
2013-09-18 02:44:00,61.3,0.0,29.81,NW,315,3.4,3.4,0,0.00,,,0.00,WUHU21623XXSP,2013-09-18 09:44:00,
2013-09-18 02:49:00,61.3,0.0,29.82,NNW,337,0.9,3.4,0,0.00,,,0.00,WUHU21623XXSP,2013-09-18 09:49:00,
2013-09-18 02:54:00,61.3,0.0,29.82,WNW,292,0.9,3.6,0,0.00,,,0.00,WUHU21623XXSP,2013-09-18 09:54:00,
2013-09-18 02:59:00,61.2,0.0,29.82,WNW,292,3.4,3.6,0,0.00,,,0.00,WUHU21623XXSP,2013-09-18 09:59:00,
2013-09-18 03:04:00,61.2,0.0,29.81,WNW,292,1.3,3.4,0,0.00,,,0.00,WUHU21623XXSP,2013-09-18 10:04:00,
2013-09-18 03:09:00,61.2,0.0,29.81,WNW,292,2.0,3.4,0,0.00,,,0.00,WUHU21623XXSP,2013-09-18 10:09:00,
2013-09-18 03:14:00,61.2,0.0,29.81,WNW,292,0.0,2.0,0,0.00,,,0.00,WUHU21623XXSP,2013-09-18 10:14:00,
2013-09-18 03:19:00,61.0,0.0,29.81,SE,135,0.0,1.6,0,0.00,,,0.00,WUHU21623XXSP,2013-09-18 10:19:00,
2013-09-18 03:24:00,61.0,0.0,29.82,WNW,292,0.0,1.6,0,0.00,,,0.00,WUHU21623XXSP,2013-09-18 10:24:00,
2013-09-18 03:29:00,61.0,0.0,29.81,NW,315,0.0,1.3,0,0.00,,,0.00,WUHU21623XXSP,2013-09-18 10:29:00,
2013-09-18 03:34:00,61.0,0.0,29.82,NW,315,1.1,1.1,0,0.00,,,0.00,WUHU21623XXSP,2013-09-18 10:34:00,
2013-09-18 03:39:00,61.0,0.0,29.81,WSW,247,0.0,1.1,0,0.00,,,0.00,WUHU21623XXSP,2013-09-18 10:39:00,
2013-09-18 03:44:00,61.0,0.0,29.82,East,90,0.0,0.0,0,0.00,,,0.00,WUHU21623XXSP,2013-09-18 10:44:00,
2013-09-18 03:49:00,60.6,0.0,29.82,North,0,1.8,1.8,0,0.00,,,0.00,WUHU21623XXSP,2013-09-18 10:49:00,
2013-09-18 03:54:00,60.6,0.0,29.82,NE,45,0.0,1.8,0,0.00,,,0.00,WUHU21623XXSP,2013-09-18 10:54:00,
2013-09-18 03:59:00,60.6,0.0,29.82,North,0,0.0,0.0,0,0.00,,,0.00,WUHU21623XXSP,2013-09-18 10:59:00,
2013-09-18 04:04:00,60.4,0.0,29.82,WNW,292,0.0,2.5,0,0.00,,,0.00,WUHU21623XXSP,2013-09-18 11:04:00,
2013-09-18 04:09:00,60.4,0.0,29.82,West,270,0.0,2.5,0,0.00,,,0.00,WUHU21623XXSP,2013-09-18 11:09:00,
2013-09-18 04:15:00,60.4,0.0,29.82,WNW,292,0.0,0.9,0,0.00,,,0.00,WUHU21623XXSP,2013-09-18 11:15:00,
2013-09-18 04:20:00,60.4,0.0,29.81,NNW,337,0.0,0.9,0,0.00,,,0.00,WUHU21623XXSP,2013-09-18 11:20:00,
2013-09-18 04:25:00,60.3,0.0,29.82,WNW,292,2.0,2.0,0,0.00,,,0.00,WUHU21623XXSP,2013-09-18 11:25:00,
2013-09-18 04:30:00,60.3,0.0,29.82,NW,315,2.0,2.0,0,0.00,,,0.00,WUHU21623XXSP,2013-09-18 11:30:00,
2013-09-18 04:35:00,60.1,0.0,29.82,SE,135,0.0,3.1,0,0.00,,,0.00,WUHU21623XXSP,2013-09-18 11:35:00,
2013-09-18 04:40:00,60.1,0.0,29.82,WNW,292,0.0,3.1,0,0.00,,,0.00,WUHU21623XXSP,2013-09-18 11:40:00,
2013-09-18 04:45:00,60.1,0.0,29.82,WSW,247,0.0,0.0,0,0.00,,,0.00,WUHU21623XXSP,2013-09-18 11:45:00,
2013-09-18 04:50:00,59.9,0.0,29.83,WNW,292,2.2,2.2,0,0.00,,,0.00,WUHU21623XXSP,2013-09-18 11:50:00,
2013-09-18 04:55:00,59.9,0.0,29.82,West,270,0.0,2.2,0,0.00,,,0.00,WUHU21623XXSP,2013-09-18 11:55:00,
2013-09-18 05:00:00,59.9,0.0,29.82,WNW,292,0.0,2.0,0,0.00,,,0.00,WUHU21623XXSP,2013-09-18 12:00:00,
2013-09-18 05:05:00,59.7,0.0,29.82,WNW,292,2.2,2.2,0,0.00,,,0.00,WUHU21623XXSP,2013-09-18 12:05:00,
2013-09-18 05:10:00,59.7,0.0,29.83,NW,315,0.0,2.2,0,0.00,,,0.00,WUHU21623XXSP,2013-09-18 12:10:00,
2013-09-18 05:15:00,59.7,0.0,29.83,North,0,0.0,0.0,0,0.00,,,0.00,WUHU21623XXSP,2013-09-18 12:15:00,
2013-09-18 05:20:00,59.7,0.0,29.82,NNW,337,0.0,0.0,0,0.00,,,0.00,WUHU21623XXSP,2013-09-18 12:20:00,
2013-09-18 05:25:00,59.7,0.0,29.82,NNE,22,2.9,2.9,0,0.00,,,0.00,WUHU21623XXSP,2013-09-18 12:25:00,
2013-09-18 05:30:00,59.7,0.0,29.82,WNW,292,2.9,2.9,0,0.00,,,0.00,WUHU21623XXSP,2013-09-18 12:30:00,
2013-09-18 05:35:00,59.7,0.0,29.82,NW,315,0.0,2.9,0,0.00,,,0.00,WUHU21623XXSP,2013-09-18 12:35:00,
2013-09-18 05:40:00,59.7,0.0,29.83,North,0,0.0,2.7,0,0.00,,,0.00,WUHU21623XXSP,2013-09-18 12:40:00,
2013-09-18 05:45:00,59.7,0.0,29.83,NE,45,0.0,2.7,0,0.00,,,0.00,WUHU21623XXSP,2013-09-18 12:45:00,
2013-09-18 05:50:00,59.7,0.0,29.83,NW,315,0.0,0.0,0,0.00,,,0.00,WUHU21623XXSP,2013-09-18 12:50:00,
2013-09-18 05:55:00,59.7,0.0,29.83,WNW,292,0.0,0.0,0,0.00,,,0.00,WUHU21623XXSP,2013-09-18 12:55:00,
2013-09-18 06:00:00,59.7,0.0,29.83,SE,135,0.0,0.0,0,0.00,,,0.00,WUHU21623XXSP,2013-09-18 13:00:00,
2013-09-18 06:05:00,59.5,0.0,29.83,East,90,0.0,0.0,0,0.00,,,0.00,WUHU21623XXSP,2013-09-18 13:05:00,
2013-09-18 06:10:00,59.5,0.0,29.83,SSE,157,0.0,0.0,0,0.00,,,0.00,WUHU21623XXSP,2013-09-18 13:10:00,
2013-09-18 06:15:00,59.5,0.0,29.83,NW,315,0.0,0.0,0,0.00,,,0.00,WUHU21623XXSP,2013-09-18 13:15:00,
2013-09-18 06:20:00,59.5,0.0,29.84,ESE,112,0.0,0.0,0,0.00,,,0.00,WUHU21623XXSP,2013-09-18 13:20:00,
2013-09-18 06:25:00,59.4,0.0,29.83,East,90,0.0,0.0,0,0.00,,,0.00,WUHU21623XXSP,2013-09-18 13:25:00,
2013-09-18 06:30:00,59.2,0.0,29.83,East,90,0.0,0.0,0,0.00,,,0.00,WUHU21623XXSP,2013-09-18 13:30:00,
2013-09-18 06:35:00,59.0,0.0,29.83,NNE,22,0.0,0.0,0,0.00,,,0.00,WUHU21623XXSP,2013-09-18 13:35:00,
2013-09-18 06:40:00,58.8,0.0,29.83,NE,45,0.0,0.0,0,0.00,,,0.00,WUHU21623XXSP,2013-09-18 13:40:00,
2013-09-18 06:45:00,58.6,0.0,29.84,NE,45,0.0,0.0,0,0.00,,,0.00,WUHU21623XXSP,2013-09-18 13:45:00,
2013-09-18 06:50:00,58.5,0.0,29.84,NE,45,0.0,0.0,0,0.00,,,0.00,WUHU21623XXSP,2013-09-18 13:50:00,
2013-09-18 06:55:00,58.3,0.0,29.84,NE,45,0.0,0.0,0,0.00,,,0.00,WUHU21623XXSP,2013-09-18 13:55:00,
2013-09-18 07:00:00,58.1,0.0,29.84,NE,45,0.0,0.0,0,0.00,,,0.00,WUHU21623XXSP,2013-09-18 14:00:00,
2013-09-18 07:05:00,57.9,0.0,29.84,NE,45,0.0,0.0,0,0.00,,,0.00,WUHU21623XXSP,2013-09-18 14:05:00,
2013-09-18 07:10:00,57.9,0.0,29.84,NE,45,0.0,0.0,0,0.00,,,0.00,WUHU21623XXSP,2013-09-18 14:10:00,
2013-09-18 07:15:00,57.7,0.0,29.84,NE,45,0.0,0.0,0,0.00,,,0.00,WUHU21623XXSP,2013-09-18 14:15:00,
2013-09-18 07:20:00,57.7,0.0,29.84,NE,45,0.0,0.0,0,0.00,,,0.00,WUHU21623XXSP,2013-09-18 14:20:00,
2013-09-18 07:25:00,57.6,0.0,29.84,NE,45,0.0,0.0,0,0.00,,,0.00,WUHU21623XXSP,2013-09-18 14:25:00,
2013-09-18 07:30:00,57.6,0.0,29.84,NE,45,0.0,0.0,0,0.00,,,0.00,WUHU21623XXSP,2013-09-18 14:30:00,
2013-09-18 07:35:00,57.4,0.0,29.84,ESE,112,0.0,0.0,0,0.00,,,0.00,WUHU21623XXSP,2013-09-18 14:35:00,
2013-09-18 07:40:00,57.4,0.0,29.85,SE,135,0.0,0.0,0,0.00,,,0.00,WUHU21623XXSP,2013-09-18 14:40:00,
2013-09-18 07:46:00,57.2,0.0,29.85,SE,135,0.0,0.0,0,0.00,,,0.00,WUHU21623XXSP,2013-09-18 14:46:00,
2013-09-18 07:51:00,57.0,0.0,29.85,SE,135,0.0,0.0,0,0.00,,,0.00,WUHU21623XXSP,2013-09-18 14:51:00,
2013-09-18 07:56:00,57.2,0.0,29.85,SE,135,0.0,0.0,0,0.00,,,0.00,WUHU21623XXSP,2013-09-18 14:56:00,
2013-09-18 08:01:00,57.0,0.0,29.84,SE,135,0.0,0.0,0,0.00,,,0.00,WUHU21623XXSP,2013-09-18 15:01:00,
2013-09-18 08:06:00,57.0,0.0,29.84,ESE,112,0.0,0.0,0,0.00,,,0.00,WUHU21623XXSP,2013-09-18 15:06:00,
2013-09-18 08:11:00,57.4,0.0,29.84,SSE,157,0.0,0.0,0,0.00,,,0.00,WUHU21623XXSP,2013-09-18 15:11:00,
2013-09-18 08:16:00,57.4,0.0,29.84,ENE,67,0.0,0.0,0,0.00,,,0.00,WUHU21623XXSP,2013-09-18 15:16:00,
2013-09-18 08:21:00,57.6,0.0,29.84,West,270,0.0,0.0,0,0.00,,,0.00,WUHU21623XXSP,2013-09-18 15:21:00,
2013-09-18 08:26:00,57.9,0.0,29.84,West,270,0.0,0.0,0,0.00,,,0.00,WUHU21623XXSP,2013-09-18 15:26:00,
2013-09-18 08:31:00,58.1,0.0,29.85,North,0,0.0,0.0,0,0.00,,,0.00,WUHU21623XXSP,2013-09-18 15:31:00,
2013-09-18 08:36:00,58.5,0.0,29.85,WNW,292,0.0,3.6,0,0.00,,,0.00,WUHU21623XXSP,2013-09-18 15:36:00,
2013-09-18 08:41:00,58.8,0.0,29.85,NNW,337,5.8,5.8,0,0.00,,,0.00,WUHU21623XXSP,2013-09-18 15:41:00,
2013-09-18 08:46:00,59.2,0.0,29.84,West,270,0.9,5.8,0,0.00,,,0.00,WUHU21623XXSP,2013-09-18 15:46:00,
2013-09-18 08:51:00,59.5,0.0,29.85,WNW,292,0.9,2.9,0,0.00,,,0.00,WUHU21623XXSP,2013-09-18 15:51:00,
2013-09-18 08:56:00,59.9,0.0,29.84,WNW,292,3.8,5.8,0,0.00,,,0.00,WUHU21623XXSP,2013-09-18 15:56:00,
2013-09-18 09:01:00,60.3,0.0,29.84,North,0,4.0,5.8,0,0.00,,,0.00,WUHU21623XXSP,2013-09-18 16:01:00,
2013-09-18 09:06:00,60.6,0.0,29.85,WSW,247,1.1,5.8,0,0.00,,,0.00,WUHU21623XXSP,2013-09-18 16:06:00,
2013-09-18 09:11:00,61.0,0.0,29.85,West,270,2.2,6.5,0,0.00,,,0.00,WUHU21623XXSP,2013-09-18 16:11:00,
2013-09-18 09:16:00,61.2,0.0,29.85,WNW,292,3.8,6.5,0,0.00,,,0.00,WUHU21623XXSP,2013-09-18 16:16:00,
2013-09-18 09:21:00,61.5,0.0,29.85,WNW,292,4.7,5.4,0,0.00,,,0.00,WUHU21623XXSP,2013-09-18 16:21:00,
2013-09-18 09:26:00,61.9,0.0,29.85,NW,315,2.9,5.4,0,0.00,,,0.00,WUHU21623XXSP,2013-09-18 16:26:00,
2013-09-18 09:31:00,62.2,0.0,29.85,NW,315,5.8,5.8,0,0.00,,,0.00,WUHU21623XXSP,2013-09-18 16:31:00,
2013-09-18 09:36:00,62.8,0.0,29.85,NNW,337,0.0,5.8,0,0.00,,,0.00,WUHU21623XXSP,2013-09-18 16:36:00,
2013-09-18 09:41:00,63.0,0.0,29.85,WSW,247,2.2,4.9,0,0.00,,,0.00,WUHU21623XXSP,2013-09-18 16:41:00,
2013-09-18 09:46:00,63.3,0.0,29.84,West,270,3.1,5.8,0,0.00,,,0.00,WUHU21623XXSP,2013-09-18 16:46:00,
2013-09-18 09:51:00,63.7,0.0,29.84,WNW,292,1.3,5.8,0,0.00,,,0.00,WUHU21623XXSP,2013-09-18 16:51:00,
2013-09-18 09:56:00,64.2,0.0,29.84,WNW,292,2.9,3.6,0,0.00,,,0.00,WUHU21623XXSP,2013-09-18 16:56:00,
2013-09-18 10:01:00,64.6,0.0,29.84,NW,315,0.0,2.9,0,0.00,,,0.00,WUHU21623XXSP,2013-09-18 17:01:00,
2013-09-18 10:06:00,64.9,0.0,29.85,WNW,292,2.9,2.9,0,0.00,,,0.00,WUHU21623XXSP,2013-09-18 17:06:00,
2013-09-18 10:11:00,65.5,0.0,29.85,WSW,247,2.5,2.9,0,0.00,,,0.00,WUHU21623XXSP,2013-09-18 17:11:00,
2013-09-18 10:16:00,66.0,0.0,29.85,WNW,292,0.0,2.5,0,0.00,,,0.00,WUHU21623XXSP,2013-09-18 17:16:00,
2013-09-18 10:21:00,66.6,0.0,29.85,WNW,292,1.8,3.1,0,0.00,,,0.00,WUHU21623XXSP,2013-09-18 17:21:00,
2013-09-18 10:26:00,66.9,0.0,29.84,WNW,292,0.9,3.1,0,0.00,,,0.00,WUHU21623XXSP,2013-09-18 17:26:00,
2013-09-18 10:31:00,67.3,0.0,29.84,WNW,292,0.0,3.4,0,0.00,,,0.00,WUHU21623XXSP,2013-09-18 17:31:00,
2013-09-18 10:36:00,67.8,0.0,29.83,NNW,337,0.0,3.4,0,0.00,,,0.00,WUHU21623XXSP,2013-09-18 17:36:00,
2013-09-18 10:42:00,68.4,0.0,29.83,WNW,292,3.6,3.6,0,0.00,,,0.00,WUHU21623XXSP,2013-09-18 17:42:00,
2013-09-18 10:47:00,68.7,0.0,29.83,West,270,3.1,3.6,0,0.00,,,0.00,WUHU21623XXSP,2013-09-18 17:47:00,
2013-09-18 10:52:00,69.4,0.0,29.83,WNW,292,0.0,3.6,0,0.00,,,0.00,WUHU21623XXSP,2013-09-18 17:52:00,
2013-09-18 10:57:00,70.0,0.0,29.83,WNW,292,0.7,3.6,0,0.00,,,0.00,WUHU21623XXSP,2013-09-18 17:57:00,
2013-09-18 11:02:00,70.5,0.0,29.82,WSW,247,0.9,2.7,0,0.00,,,0.00,WUHU21623XXSP,2013-09-18 18:02:00,
2013-09-18 11:07:00,70.9,0.0,29.82,WSW,247,0.9,0.9,0,0.00,,,0.00,WUHU21623XXSP,2013-09-18 18:07:00,
2013-09-18 11:12:00,71.2,0.0,29.82,SSW,202,2.7,2.7,0,0.00,,,0.00,WUHU21623XXSP,2013-09-18 18:12:00,
2013-09-18 11:17:00,71.4,0.0,29.82,West,270,0.0,2.7,0,0.00,,,0.00,WUHU21623XXSP,2013-09-18 18:17:00,
2013-09-18 11:22:00,72.0,0.0,29.82,NW,315,0.0,3.4,0,0.00,,,0.00,WUHU21623XXSP,2013-09-18 18:22:00,
2013-09-18 11:27:00,72.3,0.0,29.82,SW,225,0.0,3.4,0,0.00,,,0.00,WUHU21623XXSP,2013-09-18 18:27:00,
2013-09-18 11:32:00,73.0,0.0,29.82,WNW,292,0.0,2.0,0,0.00,,,0.00,WUHU21623XXSP,2013-09-18 18:32:00,
2013-09-18 11:37:00,73.6,0.0,29.83,SSE,157,2.5,3.1,0,0.00,,,0.00,WUHU21623XXSP,2013-09-18 18:37:00,
2013-09-18 11:42:00,73.8,0.0,29.83,WNW,292,1.6,3.1,0,0.00,,,0.00,WUHU21623XXSP,2013-09-18 18:42:00,
2013-09-18 11:47:00,74.8,0.0,29.83,WNW,292,3.8,7.6,0,0.00,,,0.00,WUHU21623XXSP,2013-09-18 18:47:00,
2013-09-18 11:52:00,75.0,0.0,29.83,WSW,247,2.9,7.6,0,0.00,,,0.00,WUHU21623XXSP,2013-09-18 18:52:00,
2013-09-18 11:57:00,75.7,0.0,29.82,WNW,292,1.1,3.4,0,0.00,,,0.00,WUHU21623XXSP,2013-09-18 18:57:00,
2013-09-18 12:02:00,76.3,0.0,29.82,WNW,292,0.0,2.9,0,0.00,,,0.00,WUHU21623XXSP,2013-09-18 19:02:00,
2013-09-18 12:07:00,76.8,0.0,29.82,NW,315,2.5,3.8,0,0.00,,,0.00,WUHU21623XXSP,2013-09-18 19:07:00,
2013-09-18 12:12:00,77.2,0.0,29.82,NNW,337,0.7,3.8,0,0.00,,,0.00,WUHU21623XXSP,2013-09-18 19:12:00,
2013-09-18 12:17:00,77.7,0.0,29.81,West,270,0.9,3.4,0,0.00,,,0.00,WUHU21623XXSP,2013-09-18 19:17:00,
2013-09-18 12:22:00,78.1,0.0,29.81,WNW,292,6.5,6.5,0,0.00,,,0.00,WUHU21623XXSP,2013-09-18 19:22:00,
2013-09-18 12:27:00,78.6,0.0,29.81,SW,225,1.6,6.5,0,0.00,,,0.00,WUHU21623XXSP,2013-09-18 19:27:00,
2013-09-18 12:32:00,79.2,0.0,29.80,SW,225,4.9,4.9,0,0.00,,,0.00,WUHU21623XXSP,2013-09-18 19:32:00,
2013-09-18 12:37:00,79.5,0.0,29.80,WNW,292,1.6,4.9,0,0.00,,,0.00,WUHU21623XXSP,2013-09-18 19:37:00,
2013-09-18 12:42:00,79.9,0.0,29.81,West,270,6.3,6.3,0,0.00,,,0.00,WUHU21623XXSP,2013-09-18 19:42:00,
2013-09-18 12:47:00,80.4,0.0,29.80,WNW,292,5.4,6.3,0,0.00,,,0.00,WUHU21623XXSP,2013-09-18 19:47:00,
2013-09-18 12:53:00,80.6,0.0,29.80,SW,225,2.2,5.4,0,0.00,,,0.00,WUHU21623XXSP,2013-09-18 19:53:00,
2013-09-18 12:58:00,81.1,0.0,29.79,South,180,2.2,5.4,0,0.00,,,0.00,WUHU21623XXSP,2013-09-18 19:58:00,
2013-09-18 13:03:00,81.5,0.0,29.80,SW,225,2.0,5.4,0,0.00,,,0.00,WUHU21623XXSP,2013-09-18 20:03:00,
2013-09-18 13:08:00,82.0,0.0,29.79,WSW,247,3.1,4.7,0,0.00,,,0.00,WUHU21623XXSP,2013-09-18 20:08:00,
2013-09-18 13:13:00,82.2,0.0,29.79,NW,315,0.0,3.1,0,0.00,,,0.00,WUHU21623XXSP,2013-09-18 20:13:00,
2013-09-18 13:18:00,82.6,0.0,29.78,NW,315,0.0,4.7,0,0.00,,,0.00,WUHU21623XXSP,2013-09-18 20:18:00,
2013-09-18 13:23:00,82.9,0.0,29.78,WNW,292,0.0,4.7,0,0.00,,,0.00,WUHU21623XXSP,2013-09-18 20:23:00,
2013-09-18 13:28:00,82.9,0.0,29.78,SSE,157,0.0,3.1,0,0.00,,,0.00,WUHU21623XXSP,2013-09-18 20:28:00,
2013-09-18 13:33:00,83.3,0.0,29.78,SSE,157,2.5,2.5,0,0.00,,,0.00,WUHU21623XXSP,2013-09-18 20:33:00,
2013-09-18 13:38:00,83.8,0.0,29.78,NNW,337,2.9,2.9,0,0.00,,,0.00,WUHU21623XXSP,2013-09-18 20:38:00,
2013-09-18 13:43:00,84.0,0.0,29.78,WSW,247,2.9,2.9,0,0.00,,,0.00,WUHU21623XXSP,2013-09-18 20:43:00,
2013-09-18 13:48:00,84.4,0.0,29.78,NNW,337,0.7,2.9,0,0.00,,,0.00,WUHU21623XXSP,2013-09-18 20:48:00,
2013-09-18 13:53:00,84.6,0.0,29.78,SSW,202,3.4,5.6,0,0.00,,,0.00,WUHU21623XXSP,2013-09-18 20:53:00,
2013-09-18 13:58:00,84.7,0.0,29.78,SW,225,1.1,5.6,0,0.00,,,0.00,WUHU21623XXSP,2013-09-18 20:58:00,
2013-09-18 14:03:00,84.9,0.0,29.78,WNW,292,1.1,4.5,0,0.00,,,0.00,WUHU21623XXSP,2013-09-18 21:03:00,
2013-09-18 14:08:00,85.1,0.0,29.78,SE,135,5.4,5.4,0,0.00,,,0.00,WUHU21623XXSP,2013-09-18 21:08:00,
2013-09-18 14:13:00,85.1,0.0,29.78,SW,225,8.3,8.3,0,0.00,,,0.00,WUHU21623XXSP,2013-09-18 21:13:00,
2013-09-18 14:18:00,84.9,0.0,29.78,South,180,11.0,11.0,0,0.00,,,0.00,WUHU21623XXSP,2013-09-18 21:18:00,
2013-09-18 14:24:00,84.7,0.0,29.77,NNW,337,6.5,11.6,0,0.00,,,0.00,WUHU21623XXSP,2013-09-18 21:24:00,
2013-09-18 14:29:00,84.7,0.0,29.78,West,270,2.5,11.6,0,0.00,,,0.00,WUHU21623XXSP,2013-09-18 21:29:00,
2013-09-18 14:34:00,84.9,0.0,29.78,WNW,292,3.1,10.3,0,0.00,,,0.00,WUHU21623XXSP,2013-09-18 21:34:00,
2013-09-18 14:39:00,84.9,0.0,29.78,WNW,292,2.5,10.3,0,0.00,,,0.00,WUHU21623XXSP,2013-09-18 21:39:00,
2013-09-18 14:44:00,84.9,0.0,29.78,SW,225,2.9,7.2,0,0.00,,,0.00,WUHU21623XXSP,2013-09-18 21:44:00,
2013-09-18 14:49:00,84.9,0.0,29.77,WSW,247,8.9,8.9,0,0.00,,,0.00,WUHU21623XXSP,2013-09-18 21:49:00,
2013-09-18 14:54:00,84.7,0.0,29.78,SSE,157,5.8,8.9,0,0.00,,,0.00,WUHU21623XXSP,2013-09-18 21:54:00,
2013-09-18 14:59:00,84.7,0.0,29.77,SW,225,6.0,6.0,0,0.00,,,0.00,WUHU21623XXSP,2013-09-18 21:59:00,
2013-09-18 15:04:00,84.6,0.0,29.77,West,270,2.9,6.0,0,0.00,,,0.00,WUHU21623XXSP,2013-09-18 22:04:00,
2013-09-18 15:09:00,84.7,0.0,29.77,WSW,247,7.6,7.6,0,0.00,,,0.00,WUHU21623XXSP,2013-09-18 22:09:00,
2013-09-18 15:14:00,84.7,0.0,29.77,WNW,292,5.1,7.6,0,0.00,,,0.00,WUHU21623XXSP,2013-09-18 22:14:00,
2013-09-18 15:19:00,84.6,0.0,29.77,West,270,3.1,5.1,0,0.00,,,0.00,WUHU21623XXSP,2013-09-18 22:19:00,
2013-09-18 15:24:00,84.7,0.0,29.76,NW,315,6.5,8.5,0,0.00,,,0.00,WUHU21623XXSP,2013-09-18 22:24:00,
2013-09-18 15:29:00,84.7,0.0,29.76,WNW,292,8.1,8.5,0,0.00,,,0.00,WUHU21623XXSP,2013-09-18 22:29:00,
2013-09-18 15:34:00,84.4,0.0,29.76,West,270,10.7,10.7,0,0.00,,,0.00,WUHU21623XXSP,2013-09-18 22:34:00,
2013-09-18 15:39:00,84.0,0.0,29.76,WNW,292,6.0,10.7,0,0.00,,,0.00,WUHU21623XXSP,2013-09-18 22:39:00,
2013-09-18 15:44:00,84.2,0.0,29.76,SW,225,4.0,6.0,0,0.00,,,0.00,WUHU21623XXSP,2013-09-18 22:44:00,
2013-09-18 15:49:00,84.2,0.0,29.76,WSW,247,3.4,5.1,0,0.00,,,0.00,WUHU21623XXSP,2013-09-18 22:49:00,
2013-09-18 15:54:00,84.2,0.0,29.75,West,270,0.9,5.1,0,0.00,,,0.00,WUHU21623XXSP,2013-09-18 22:54:00,
2013-09-18 15:59:00,84.4,0.0,29.75,South,180,2.2,3.4,0,0.00,,,0.00,WUHU21623XXSP,2013-09-18 22:59:00,
2013-09-18 16:04:00,84.6,0.0,29.75,WNW,292,4.3,4.3,0,0.00,,,0.00,WUHU21623XXSP,2013-09-18 23:04:00,
2013-09-18 16:09:00,84.6,0.0,29.75,SSE,157,2.2,4.3,0,0.00,,,0.00,WUHU21623XXSP,2013-09-18 23:09:00,
2013-09-18 16:14:00,84.7,0.0,29.74,West,270,2.5,6.3,0,0.00,,,0.00,WUHU21623XXSP,2013-09-18 23:14:00,
2013-09-18 16:19:00,84.9,0.0,29.74,WNW,292,2.0,6.3,0,0.00,,,0.00,WUHU21623XXSP,2013-09-18 23:19:00,
2013-09-18 16:24:00,85.1,0.0,29.75,WSW,247,1.1,5.1,0,0.00,,,0.00,WUHU21623XXSP,2013-09-18 23:24:00,
2013-09-18 16:29:00,84.9,0.0,29.74,SW,225,0.9,3.1,0,0.00,,,0.00,WUHU21623XXSP,2013-09-18 23:29:00,
2013-09-18 16:34:00,84.9,0.0,29.74,South,180,2.2,2.9,0,0.00,,,0.00,WUHU21623XXSP,2013-09-18 23:34:00,
2013-09-18 16:39:00,84.9,0.0,29.74,WSW,247,5.1,5.1,0,0.00,,,0.00,WUHU21623XXSP,2013-09-18 23:39:00,
2013-09-18 16:44:00,85.1,0.0,29.73,South,180,4.3,5.1,0,0.00,,,0.00,WUHU21623XXSP,2013-09-18 23:44:00,
2013-09-18 16:49:00,85.3,0.0,29.73,NW,315,0.0,7.2,0,0.00,,,0.00,WUHU21623XXSP,2013-09-18 23:49:00,
2013-09-18 16:54:00,85.6,0.0,29.74,SW,225,1.8,7.2,0,0.00,,,0.00,WUHU21623XXSP,2013-09-18 23:54:00,
2013-09-18 17:00:00,86.4,0.0,29.73,SSE,157,3.6,8.3,0,0.00,,,0.00,WUHU21623XXSP,2013-09-19 00:00:00,
2013-09-18 17:05:00,86.5,0.0,29.72,SW,225,1.1,8.3,0,0.00,,,0.00,WUHU21623XXSP,2013-09-19 00:05:00,
2013-09-18 17:10:00,86.7,0.0,29.73,SW,225,2.0,6.9,0,0.00,,,0.00,WUHU21623XXSP,2013-09-19 00:10:00,
2013-09-18 17:15:00,87.3,0.0,29.73,SW,225,2.0,2.0,0,0.00,,,0.00,WUHU21623XXSP,2013-09-19 00:15:00,
2013-09-18 17:20:00,87.4,0.0,29.73,South,180,0.7,2.9,0,0.00,,,0.00,WUHU21623XXSP,2013-09-19 00:20:00,
2013-09-18 17:25:00,88.0,0.0,29.73,SW,225,0.0,2.9,0,0.00,,,0.00,WUHU21623XXSP,2013-09-19 00:25:00,
2013-09-18 17:30:00,88.3,0.0,29.73,NNW,337,0.0,1.1,0,0.00,,,0.00,WUHU21623XXSP,2013-09-19 00:30:00,
2013-09-18 17:35:00,88.3,0.0,29.73,SE,135,2.7,3.6,0,0.00,,,0.00,WUHU21623XXSP,2013-09-19 00:35:00,
2013-09-18 17:40:00,88.3,0.0,29.73,SE,135,0.9,3.6,0,0.00,,,0.00,WUHU21623XXSP,2013-09-19 00:40:00,
2013-09-18 17:45:00,88.3,0.0,29.73,ENE,67,0.0,2.9,0,0.00,,,0.00,WUHU21623XXSP,2013-09-19 00:45:00,
2013-09-18 17:50:00,88.3,0.0,29.73,South,180,2.7,2.7,0,0.00,,,0.00,WUHU21623XXSP,2013-09-19 00:50:00,
2013-09-18 17:55:00,88.0,0.0,29.73,South,180,2.7,2.7,0,0.00,,,0.00,WUHU21623XXSP,2013-09-19 00:55:00,
2013-09-18 18:00:00,87.6,0.0,29.73,South,180,1.1,2.7,0,0.00,,,0.00,WUHU21623XXSP,2013-09-19 01:00:00,
2013-09-18 18:05:00,87.4,0.0,29.72,SSE,157,4.0,4.0,0,0.00,,,0.00,WUHU21623XXSP,2013-09-19 01:05:00,
2013-09-18 18:10:00,87.1,0.0,29.72,South,180,0.7,4.0,0,0.00,,,0.00,WUHU21623XXSP,2013-09-19 01:10:00,
2013-09-18 18:15:00,87.1,0.0,29.72,South,180,0.7,4.0,0,0.00,,,0.00,WUHU21623XXSP,2013-09-19 01:15:00,
2013-09-18 18:20:00,86.7,0.0,29.73,South,180,0.7,0.7,0,0.00,,,0.00,WUHU21623XXSP,2013-09-19 01:20:00,
2013-09-18 18:26:00,86.2,0.0,29.72,NW,315,0.0,0.7,0,0.00,,,0.00,WUHU21623XXSP,2013-09-19 01:26:00,
2013-09-18 18:31:00,85.6,0.0,29.72,SE,135,1.8,1.8,0,0.00,,,0.00,WUHU21623XXSP,2013-09-19 01:31:00,
2013-09-18 18:36:00,85.1,0.0,29.73,SE,135,0.0,2.2,0,0.00,,,0.00,WUHU21623XXSP,2013-09-19 01:36:00,
2013-09-18 18:41:00,84.4,0.0,29.73,SE,135,0.7,2.2,0,0.00,,,0.00,WUHU21623XXSP,2013-09-19 01:41:00,
2013-09-18 18:46:00,83.8,0.0,29.73,SSW,202,2.9,2.9,0,0.00,,,0.00,WUHU21623XXSP,2013-09-19 01:46:00,
2013-09-18 18:51:00,82.9,0.0,29.73,South,180,1.6,2.9,0,0.00,,,0.00,WUHU21623XXSP,2013-09-19 01:51:00,
2013-09-18 18:56:00,82.2,0.0,29.73,South,180,1.3,1.6,0,0.00,,,0.00,WUHU21623XXSP,2013-09-19 01:56:00,
2013-09-18 19:01:00,81.7,0.0,29.73,SSE,157,0.0,1.3,0,0.00,,,0.00,WUHU21623XXSP,2013-09-19 02:01:00,
2013-09-18 19:06:00,80.8,0.0,29.73,East,90,0.0,4.0,0,0.00,,,0.00,WUHU21623XXSP,2013-09-19 02:06:00,
2013-09-18 19:11:00,80.2,0.0,29.74,East,90,0.0,4.0,0,0.00,,,0.00,WUHU21623XXSP,2013-09-19 02:11:00,
2013-09-18 19:16:00,79.5,0.0,29.74,South,180,2.5,2.5,0,0.00,,,0.00,WUHU21623XXSP,2013-09-19 02:16:00,
2013-09-18 19:21:00,78.6,0.0,29.74,East,90,0.0,2.5,0,0.00,,,0.00,WUHU21623XXSP,2013-09-19 02:21:00,
2013-09-18 19:26:00,78.3,0.0,29.73,SSE,157,0.0,0.0,0,0.00,,,0.00,WUHU21623XXSP,2013-09-19 02:26:00,
2013-09-18 19:31:00,77.4,0.0,29.74,SE,135,0.0,2.5,0,0.00,,,0.00,WUHU21623XXSP,2013-09-19 02:31:00,
2013-09-18 19:36:00,77.0,0.0,29.74,SSE,157,0.0,2.5,0,0.00,,,0.00,WUHU21623XXSP,2013-09-19 02:36:00,
2013-09-18 19:41:00,76.6,0.0,29.74,SW,225,0.0,0.0,0,0.00,,,0.00,WUHU21623XXSP,2013-09-19 02:41:00,
2013-09-18 19:46:00,75.9,0.0,29.75,East,90,0.0,0.0,0,0.00,,,0.00,WUHU21623XXSP,2013-09-19 02:46:00,
2013-09-18 19:51:00,75.6,0.0,29.74,East,90,0.0,0.0,0,0.00,,,0.00,WUHU21623XXSP,2013-09-19 02:51:00,
2013-09-18 19:57:00,75.0,0.0,29.75,NNE,22,0.0,0.0,0,0.00,,,0.00,WUHU21623XXSP,2013-09-19 02:57:00,
2013-09-18 20:02:00,74.5,0.0,29.75,NE,45,0.0,0.0,0,0.00,,,0.00,WUHU21623XXSP,2013-09-19 03:02:00,
2013-09-18 20:07:00,74.1,0.0,29.75,NE,45,0.0,0.0,0,0.00,,,0.00,WUHU21623XXSP,2013-09-19 03:07:00,
2013-09-18 20:12:00,73.6,0.0,29.75,ENE,67,0.0,0.0,0,0.00,,,0.00,WUHU21623XXSP,2013-09-19 03:12:00,
2013-09-18 20:17:00,73.0,0.0,29.75,ENE,67,0.0,0.0,0,0.00,,,0.00,WUHU21623XXSP,2013-09-19 03:17:00,
2013-09-18 20:22:00,72.7,0.0,29.75,ENE,67,0.0,0.0,0,0.00,,,0.00,WUHU21623XXSP,2013-09-19 03:22:00,
2013-09-18 20:27:00,72.3,0.0,29.76,East,90,0.0,0.0,0,0.00,,,0.00,WUHU21623XXSP,2013-09-19 03:27:00,
2013-09-18 20:32:00,71.8,0.0,29.75,East,90,0.0,0.0,0,0.00,,,0.00,WUHU21623XXSP,2013-09-19 03:32:00,
2013-09-18 20:37:00,71.4,0.0,29.76,ENE,67,0.0,0.0,0,0.00,,,0.00,WUHU21623XXSP,2013-09-19 03:37:00,
2013-09-18 20:42:00,70.9,0.0,29.76,East,90,0.0,0.0,0,0.00,,,0.00,WUHU21623XXSP,2013-09-19 03:42:00,
2013-09-18 20:47:00,70.5,0.0,29.76,East,90,0.0,0.0,0,0.00,,,0.00,WUHU21623XXSP,2013-09-19 03:47:00,
2013-09-18 20:52:00,70.3,0.0,29.76,East,90,0.0,0.0,0,0.00,,,0.00,WUHU21623XXSP,2013-09-19 03:52:00,
2013-09-18 20:57:00,70.0,0.0,29.76,East,90,0.0,0.0,0,0.00,,,0.00,WUHU21623XXSP,2013-09-19 03:57:00,
2013-09-18 21:02:00,69.6,0.0,29.76,East,90,0.0,0.0,0,0.00,,,0.00,WUHU21623XXSP,2013-09-19 04:02:00,
2013-09-18 21:07:00,69.3,0.0,29.76,ESE,112,0.0,0.0,0,0.00,,,0.00,WUHU21623XXSP,2013-09-19 04:07:00,
2013-09-18 21:12:00,68.9,0.0,29.77,East,90,0.0,0.0,0,0.00,,,0.00,WUHU21623XXSP,2013-09-19 04:12:00,
2013-09-18 21:17:00,68.7,0.0,29.76,East,90,0.0,0.0,0,0.00,,,0.00,WUHU21623XXSP,2013-09-19 04:17:00,
2013-09-18 21:22:00,68.5,0.0,29.76,East,90,0.0,0.0,0,0.00,,,0.00,WUHU21623XXSP,2013-09-19 04:22:00,
2013-09-18 21:27:00,68.2,0.0,29.76,ESE,112,0.0,0.0,0,0.00,,,0.00,WUHU21623XXSP,2013-09-19 04:27:00,
2013-09-18 21:32:00,68.2,0.0,29.76,South,180,0.0,0.0,0,0.00,,,0.00,WUHU21623XXSP,2013-09-19 04:32:00,
2013-09-18 21:37:00,68.0,0.0,29.77,NNW,337,0.0,0.0,0,0.00,,,0.00,WUHU21623XXSP,2013-09-19 04:37:00,
2013-09-18 21:42:00,67.6,0.0,29.76,ESE,112,0.0,0.0,0,0.00,,,0.00,WUHU21623XXSP,2013-09-19 04:42:00,
2013-09-18 21:47:00,67.5,0.0,29.77,ESE,112,0.0,0.0,0,0.00,,,0.00,WUHU21623XXSP,2013-09-19 04:47:00,
2013-09-18 21:52:00,67.3,0.0,29.77,ENE,67,0.0,0.0,0,0.00,,,0.00,WUHU21623XXSP,2013-09-19 04:52:00,
2013-09-18 21:57:00,66.9,0.0,29.76,ENE,67,0.0,0.0,0,0.00,,,0.00,WUHU21623XXSP,2013-09-19 04:57:00,
2013-09-18 22:02:00,66.7,0.0,29.76,ENE,67,0.0,0.0,0,0.00,,,0.00,WUHU21623XXSP,2013-09-19 05:02:00,
2013-09-18 22:07:00,66.6,0.0,29.76,NNE,22,0.0,0.0,0,0.00,,,0.00,WUHU21623XXSP,2013-09-19 05:07:00,
2013-09-18 22:12:00,66.4,0.0,29.76,NE,45,0.0,0.0,0,0.00,,,0.00,WUHU21623XXSP,2013-09-19 05:12:00,
2013-09-18 22:17:00,66.0,0.0,29.76,ENE,67,0.0,0.0,0,0.00,,,0.00,WUHU21623XXSP,2013-09-19 05:17:00,
2013-09-18 22:22:00,66.0,0.0,29.76,West,270,0.0,0.0,0,0.00,,,0.00,WUHU21623XXSP,2013-09-19 05:22:00,
2013-09-18 22:27:00,65.7,0.0,29.77,ENE,67,0.0,0.0,0,0.00,,,0.00,WUHU21623XXSP,2013-09-19 05:27:00,
2013-09-18 22:32:00,65.5,0.0,29.76,ENE,67,0.0,0.0,0,0.00,,,0.00,WUHU21623XXSP,2013-09-19 05:32:00,
2013-09-18 22:37:00,65.5,0.0,29.77,SE,135,0.0,0.0,0,0.00,,,0.00,WUHU21623XXSP,2013-09-19 05:37:00,
2013-09-18 22:42:00,65.3,0.0,29.77,ENE,67,0.0,0.0,0,0.00,,,0.00,WUHU21623XXSP,2013-09-19 05:42:00,
2013-09-18 22:47:00,65.1,0.0,29.77,ENE,67,0.0,0.0,0,0.00,,,0.00,WUHU21623XXSP,2013-09-19 05:47:00,
2013-09-18 22:52:00,64.9,0.0,29.77,SE,135,0.0,0.0,0,0.00,,,0.00,WUHU21623XXSP,2013-09-19 05:52:00,
2013-09-18 22:57:00,64.6,0.0,29.77,ENE,67,0.0,0.0,0,0.00,,,0.00,WUHU21623XXSP,2013-09-19 05:57:00,
2013-09-18 23:02:00,64.6,0.0,29.77,ENE,67,0.0,0.0,0,0.00,,,0.00,WUHU21623XXSP,2013-09-19 06:02:00,
2013-09-18 23:07:00,64.2,0.0,29.78,ENE,67,0.0,0.0,0,0.00,,,0.00,WUHU21623XXSP,2013-09-19 06:07:00,
2013-09-18 23:12:00,64.0,0.0,29.77,NE,45,0.0,0.0,0,0.00,,,0.00,WUHU21623XXSP,2013-09-19 06:12:00,
2013-09-18 23:17:00,63.7,0.0,29.77,ENE,67,0.0,0.0,0,0.00,,,0.00,WUHU21623XXSP,2013-09-19 06:17:00,
2013-09-18 23:22:00,63.5,0.0,29.77,ENE,67,0.0,0.0,0,0.00,,,0.00,WUHU21623XXSP,2013-09-19 06:22:00,
2013-09-18 23:27:00,63.1,0.0,29.77,ENE,67,0.0,0.0,0,0.00,,,0.00,WUHU21623XXSP,2013-09-19 06:27:00,
2013-09-18 23:32:00,63.1,0.0,29.78,NE,45,0.0,0.0,0,0.00,,,0.00,WUHU21623XXSP,2013-09-19 06:32:00,
2013-09-18 23:37:00,63.0,0.0,29.77,NE,45,0.0,0.0,0,0.00,,,0.00,WUHU21623XXSP,2013-09-19 06:37:00,
2013-09-18 23:42:00,62.8,0.0,29.78,SSW,202,0.0,0.0,0,0.00,,,0.00,WUHU21623XXSP,2013-09-19 06:42:00,
2013-09-18 23:47:00,62.6,0.0,29.77,ENE,67,0.0,0.0,0,0.00,,,0.00,WUHU21623XXSP,2013-09-19 06:47:00,
2013-09-18 23:52:00,62.4,0.0,29.77,NE,45,0.0,0.0,0,0.00,,,0.00,WUHU21623XXSP,2013-09-19 06:52:00,
2013-09-18 23:57:00,62.2,0.0,29.78,NNE,22,0.0,0.0,0,0.00,,,0.00,WUHU21623XXSP,2013-09-19 06:57:00,